LZ1BAB-WX Weather Reports


time (UTC)temp
C
wind
direction
speed
KPH
gust
KPH
rain 1hr
cm
rain 24hr
cm
rain mn
cm
humidity
%
barometer
mb
20260508013057 9 133 0.0 3.2 0.00 0.00 0.00 98 1017.7
20260508012858 9 143 0.0 3.2 0.00 0.00 0.00 98 1017.6
20260508012658 9 221 1.6 3.2 0.00 0.00 0.00 98 1017.6
20260508012457 9 150 1.6 3.2 0.00 0.00 0.00 98 1017.7
20260508012257 9 15 0.0 3.2 0.00 0.00 0.00 98 1017.8
20260508012059 9 310 0.0 3.2 0.00 0.00 0.00 98 1017.6
20260508011857 9 241 0.0 3.2 0.00 0.00 0.00 98 1017.7
20260508011658 9 337 1.6 3.2 0.00 0.00 0.00 98 1017.4
20260508011458 9 344 0.0 3.2 0.00 0.00 0.00 98 1017.7
20260508011258 9 70 0.0 3.2 0.00 0.00 0.00 98 1017.6
20260508011057 9 318 1.6 3.2 0.00 0.00 0.00 98 1017.6
20260508010858 9 63 0.0 3.2 0.00 0.00 0.00 98 1017.8
20260508010657 9 288 0.0 3.2 0.00 0.00 0.00 98 1017.5
20260508010457 9 339 0.0 3.2 0.00 0.00 0.00 98 1017.6
20260508010257 9 341 0.0 3.2 0.00 0.00 0.00 98 1017.6
20260508010057 9 87 1.6 3.2 0.00 0.00 0.00 98 1017.7
20260508005857 9 73 0.0 3.2 0.00 0.00 0.00 98 1017.6
20260508005657 9 75 1.6 3.2 0.00 0.00 0.00 98 1017.5
20260508005457 9 309 3.2 3.2 0.00 0.00 0.00 98 1017.6
20260508005257 9 336 0.0 3.2 0.00 0.00 0.00 98 1017.6
20260508005057 9 4 1.6 3.2 0.00 0.00 0.00 98 1017.6
20260508004857 9 215 1.6 3.2 0.00 0.00 0.00 98 1017.7
20260508004658 9 353 0.0 3.2 0.00 0.00 0.00 98 1017.6
20260508004457 9 322 0.0 3.2 0.00 0.00 0.00 98 1017.7
20260508004257 9 26 0.0 3.2 0.00 0.00 0.00 98 1017.6
20260508004057 9 143 1.6 3.2 0.00 0.00 0.00 98 1017.8
20260508003859 9 352 1.6 3.2 0.00 0.00 0.00 98 1017.8
20260508003658 9 293 0.0 3.2 0.00 0.00 0.00 98 1017.6
20260508003458 9 328 0.0 3.2 0.00 0.00 0.00 98 1017.6
20260508003258 9 25 0.0 3.2 0.00 0.00 0.00 97 1017.6
20260508003057 9 346 0.0 3.2 0.00 0.00 0.00 97 1017.6
20260508002857 9 7 0.0 3.2 0.00 0.00 0.00 97 1017.6
20260508002657 9 76 0.0 4.8 0.00 0.00 0.00 97 1017.7
20260508002457 9 214 0.0 4.8 0.00 0.00 0.00 97 1017.6
20260508002258 9 91 1.6 4.8 0.00 0.00 0.00 97 1017.6
20260508002058 10 173 0.0 4.8 0.00 0.00 0.00 97 1017.7
20260508001858 10 49 0.0 4.8 0.00 0.00 0.00 97 1017.6
20260508001657 10 29 3.2 3.2 0.00 0.00 0.00 97 1017.6
20260508001457 10 130 0.0 3.2 0.00 0.00 0.00 97 1017.7
20260508001257 10 11 0.0 3.2 0.00 0.00 0.00 97 1017.6
20260508000857 10 320 0.0 3.2 0.00 0.00 0.00 97 1017.8
20260508000657 10 269 0.0 3.2 0.00 0.00 0.00 97 1017.6
20260508000458 10 327 0.0 3.2 0.00 0.00 0.00 97 1017.7
20260508000258 10 311 0.0 3.2 0.00 0.00 0.00 97 1017.8
20260508000057 10 159 0.0 3.2 0.00 0.00 0.00 97 1017.9
20260507235857 10 133 1.6 3.2 0.00 0.00 0.00 97 1017.8
20260507235658 10 236 0.0 3.2 0.00 0.00 0.00 97 1017.8
20260507235456 10 25 0.0 3.2 0.00 0.00 0.00 97 1017.7
20260507235258 10 337 0.0 3.2 0.00 0.00 0.00 97 1017.8
20260507235057 10 17 0.0 3.2 0.00 0.00 0.00 97 1017.8
20260507234857 10 213 0.0 3.2 0.00 0.00 0.00 97 1017.6
20260507234657 10 132 0.0 3.2 0.00 0.00 0.00 97 1017.7
20260507234457 10 153 0.0 3.2 0.00 0.00 0.00 97 1017.7
20260507234257 10 271 0.0 3.2 0.00 0.00 0.00 97 1017.8
20260507234058 10 269 0.0 3.2 0.00 0.00 0.00 97 1017.9
20260507233857 10 297 0.0 3.2 0.00 0.00 0.00 97 1017.6
20260507233658 10 303 0.0 3.2 0.00 0.00 0.00 97 1017.8
20260507233457 10 12 0.0 3.2 0.00 0.00 0.00 97 1017.9
20260507233257 10 85 0.0 3.2 0.00 0.00 0.00 97 1017.6
20260507233057 10 180 1.6 3.2 0.00 0.00 0.00 97 1018.0
20260507232857 10 0 0.0 3.2 0.00 0.00 0.00 97 1018.1
20260507232657 10 242 0.0 3.2 0.00 0.00 0.00 97 1017.9
20260507232456 10 310 0.0 3.2 0.00 0.00 0.00 97 1018.0
20260507232257 10 320 0.0 3.2 0.00 0.00 0.00 97 1017.9
20260507232057 10 298 0.0 3.2 0.00 0.00 0.00 96 1018.0
20260507231857 10 55 0.0 3.2 0.00 0.00 0.00 96 1017.8
20260507231658 10 311 0.0 3.2 0.00 0.00 0.00 96 1017.8
20260507231458 10 246 0.0 3.2 0.00 0.00 0.00 96 1017.8
20260507231257 10 245 0.0 3.2 0.00 0.00 0.00 96 1018.1
20260507231058 10 212 1.6 3.2 0.00 0.00 0.00 96 1018.0
20260507230858 10 304 0.0 3.2 0.00 0.00 0.00 96 1017.9
20260507230657 11 235 0.0 3.2 0.00 0.00 0.00 96 1018.2
20260507230457 11 232 0.0 3.2 0.00 0.00 0.00 96 1018.1
20260507230257 11 244 1.6 3.2 0.00 0.00 0.00 96 1017.9
20260507230057 11 282 0.0 3.2 0.00 0.00 0.00 96 1017.9
20260507225857 11 309 0.0 1.6 0.00 0.00 0.00 96 1018.0
20260507225657 11 266 0.0 1.6 0.00 0.00 0.00 96 1018.1
20260507225457 11 230 0.0 3.2 0.00 0.00 0.00 96 1018.0
20260507225258 11 265 0.0 3.2 0.00 0.00 0.00 96 1018.1
20260507225057 11 203 0.0 3.2 0.00 0.00 0.00 96 1017.9
20260507224857 11 266 0.0 3.2 0.00 0.00 0.00 96 1018.0
20260507224657 11 302 0.0 3.2 0.00 0.00 0.00 96 1018.0
20260507224457 11 297 0.0 3.2 0.00 0.00 0.00 96 1017.9
20260507224258 11 44 0.0 3.2 0.00 0.00 0.00 96 1018.2
20260507224058 11 88 1.6 1.6 0.00 0.00 0.00 96 1017.8
20260507223858 11 286 0.0 1.6 0.00 0.00 0.00 96 1018.1
20260507223658 11 246 0.0 1.6 0.00 0.00 0.00 96 1017.9
20260507223457 11 242 0.0 1.6 0.00 0.00 0.00 96 1018.0
20260507223258 11 312 0.0 1.6 0.00 0.00 0.00 96 1017.9
20260507223057 11 212 0.0 1.6 0.00 0.00 0.00 96 1017.9
20260507222857 12 326 0.0 1.6 0.00 0.00 0.00 96 1018.1
20260507222657 12 0 0.0 1.6 0.00 0.00 0.00 96 1017.8
20260507222457 12 329 0.0 1.6 0.00 0.00 0.00 96 1018.0
20260507222257 12 304 0.0 3.2 0.00 0.00 0.00 96 1017.9
20260507222057 12 231 0.0 3.2 0.00 0.00 0.00 96 1018.0
20260507221857 12 39 0.0 3.2 0.00 0.00 0.00 95 1017.9
20260507221657 12 135 0.0 3.2 0.00 0.00 0.00 95 1017.8
20260507221457 12 139 0.0 3.2 0.00 0.00 0.00 95 1017.9
20260507221257 12 269 0.0 1.6 0.00 0.00 0.00 95 1018.0
20260507221058 12 217 0.0 1.6 0.00 0.00 0.00 95 1018.0
20260507220858 12 336 0.0 1.6 0.00 0.00 0.00 95 1017.9
20260507220658 12 297 0.0 1.6 0.00 0.00 0.00 95 1018.2
20260507220458 12 332 0.0 1.6 0.00 0.00 0.00 95 1018.0
20260507220258 12 242 0.0 1.6 0.00 0.00 0.00 95 1018.0
20260507220058 12 304 0.0 1.6 0.00 0.00 0.00 95 1018.0
20260507215858 12 142 0.0 1.6 0.00 0.00 0.00 95 1018.0
20260507215658 12 135 0.0 1.6 0.00 0.00 0.00 95 1017.8
20260507215445 12 291 0.0 3.2 0.00 0.00 0.00 95 1017.8
20260507215245 12 297 0.0 3.2 0.00 0.00 0.00 95 1018.1
20260507215046 12 147 0.0 3.2 0.00 0.00 0.00 95 1018.0
20260507214846 12 149 0.0 3.2 0.00 0.00 0.00 94 1017.9
20260507214647 12 129 0.0 3.2 0.00 0.00 0.00 94 1018.0
20260507214445 12 143 0.0 3.2 0.00 0.00 0.00 94 1017.8
20260507214245 12 137 0.0 3.2 0.00 0.00 0.00 94 1017.6
20260507214045 12 122 0.0 3.2 0.00 0.00 0.00 94 1017.8
20260507213845 13 178 0.0 3.2 0.00 0.00 0.00 93 1017.8
20260507213645 13 221 0.0 3.2 0.00 0.00 0.00 93 1017.9
20260507213446 13 195 0.0 3.2 0.00 0.00 0.00 92 1017.7
20260507213245 13 171 3.2 3.2 0.00 0.00 0.00 92 1017.5
20260507213045 13 228 1.6 3.2 0.00 0.00 0.00 92 1017.7
20260507212846 13 243 0.0 3.2 0.00 0.00 0.00 92 1017.7
20260507212646 13 210 0.0 3.2 0.00 0.00 0.00 91 1017.7
20260507212445 13 293 0.0 3.2 0.00 0.00 0.00 91 1017.7
20260507212245 13 321 0.0 3.2 0.00 0.00 0.00 91 1017.6
20260507212045 13 270 3.2 3.2 0.00 0.00 0.00 91 1017.6
20260507211845 13 116 0.0 3.2 0.00 0.00 0.00 91 1017.5
20260507211645 13 272 0.0 3.2 0.00 0.00 0.00 91 1017.6
20260507211446 13 231 0.0 3.2 0.00 0.00 0.00 91 1017.9
20260507211245 14 249 0.0 3.2 0.00 0.00 0.00 91 1017.8
20260507211045 14 129 0.0 3.2 0.00 0.00 0.00 91 1017.7
20260507210845 14 52 0.0 3.2 0.00 0.00 0.00 91 1017.7
20260507210645 14 37 0.0 3.2 0.00 0.00 0.00 90 1017.7
20260507210447 14 255 0.0 3.2 0.00 0.00 0.00 90 1017.8
20260507210245 14 268 0.0 3.2 0.00 0.00 0.00 90 1017.7
20260507210046 14 315 0.0 3.2 0.00 0.00 0.00 90 1017.6
20260507205845 14 9 1.6 3.2 0.00 0.00 0.00 91 1017.7
20260507205646 14 49 1.6 3.2 0.00 0.00 0.00 91 1017.8
20260507205445 14 38 1.6 3.2 0.00 0.00 0.00 92 1017.8
20260507205246 14 42 3.2 3.2 0.00 0.00 0.00 92 1017.7
20260507205045 14 145 0.0 3.2 0.00 0.00 0.00 92 1017.7
20260507204845 14 282 0.0 3.2 0.00 0.00 0.00 92 1017.7
20260507204645 14 37 0.0 3.2 0.00 0.00 0.00 92 1017.8
20260507204446 14 354 0.0 3.2 0.00 0.00 0.00 92 1017.7
20260507204246 14 38 0.0 3.2 0.00 0.00 0.00 92 1017.6
20260507204045 14 58 0.0 3.2 0.00 0.00 0.00 92 1017.7
20260507203846 14 185 0.0 3.2 0.00 0.00 0.00 92 1017.6
20260507203645 14 154 0.0 3.2 0.00 0.00 0.00 91 1017.5
20260507203446 15 212 0.0 3.2 0.00 0.00 0.00 90 1017.5
20260507203246 15 185 0.0 3.2 0.00 0.00 0.00 90 1017.6
20260507203033 15 183 1.6 1.6 0.00 0.00 0.00 89 1017.6
20260507202833 15 315 0.0 1.6 0.00 0.00 0.00 89 1017.4
20260507202634 15 213 0.0 1.6 0.00 0.00 0.00 89 1017.4
20260507202433 15 224 0.0 3.2 0.00 0.00 0.00 89 1017.5
20260507202233 15 193 0.0 3.2 0.00 0.00 0.00 89 1017.4
20260507202033 15 180 0.0 3.2 0.00 0.00 0.00 89 1017.8
20260507201835 15 174 0.0 3.2 0.00 0.00 0.00 89 1017.5
20260507201634 15 301 0.0 3.2 0.00 0.00 0.00 89 1017.6
20260507201433 15 275 0.0 1.6 0.00 0.00 0.00 89 1017.4
20260507201233 15 238 0.0 3.2 0.00 0.00 0.00 89 1017.5
20260507201034 15 220 0.0 3.2 0.00 0.00 0.00 89 1017.5
20260507200833 15 242 0.0 3.2 0.00 0.00 0.00 89 1017.6
20260507200634 15 194 1.6 3.2 0.00 0.00 0.00 89 1017.5
20260507200433 15 199 1.6 3.2 0.00 0.00 0.00 89 1017.4
20260507200234 15 227 1.6 3.2 0.00 0.00 0.00 89 1017.5
20260507195833 15 315 0.0 3.2 0.00 0.00 0.00 89 1017.5
20260507195634 15 317 0.0 3.2 0.00 0.00 0.00 89 1017.7
20260507195433 15 326 0.0 3.2 0.00 0.00 0.00 88 1017.4
20260507195234 15 325 0.0 1.6 0.00 0.00 0.00 88 1017.5
20260507195033 15 239 0.0 3.2 0.00 0.00 0.00 88 1017.6
20260507194833 15 204 0.0 3.2 0.00 0.00 0.00 88 1017.5
20260507194633 15 315 0.0 3.2 0.00 0.00 0.00 87 1017.7
20260507194433 15 311 0.0 3.2 0.00 0.00 0.00 88 1017.6
20260507194234 15 269 0.0 3.2 0.00 0.00 0.00 88 1017.4
20260507194033 15 224 1.6 1.6 0.00 0.00 0.00 87 1017.4
20260507193833 15 206 0.0 1.6 0.00 0.00 0.00 87 1017.6
20260507193634 15 218 0.0 3.2 0.00 0.00 0.00 87 1017.5
20260507193433 15 264 0.0 3.2 0.00 0.00 0.00 87 1017.6
20260507193233 15 13 0.0 3.2 0.00 0.00 0.00 87 1017.4
20260507193033 15 6 0.0 3.2 0.00 0.00 0.00 87 1017.4
20260507192834 15 210 0.0 3.2 0.00 0.00 0.00 87 1017.8
20260507192633 15 215 1.6 3.2 0.00 0.00 0.00 87 1017.5
20260507192434 16 236 0.0 3.2 0.00 0.00 0.00 86 1017.6
20260507192234 16 203 0.0 3.2 0.00 0.00 0.00 86 1017.5
20260507192033 16 164 0.0 3.2 0.00 0.00 0.00 86 1017.8
20260507191834 16 343 0.0 3.2 0.00 0.00 0.00 86 1017.5
20260507191634 16 242 0.0 3.2 0.00 0.00 0.00 86 1017.5
20260507191433 16 192 1.6 3.2 0.00 0.00 0.00 85 1017.7
20260507191233 16 201 3.2 3.2 0.00 0.00 0.00 84 1017.3
20260507191033 16 191 1.6 3.2 0.00 0.00 0.00 84 1017.4
20260507190833 16 214 0.0 1.6 0.00 0.00 0.00 84 1017.4
20260507190633 16 135 0.0 1.6 0.00 0.00 0.00 84 1017.3
20260507190433 16 164 0.0 1.6 0.00 0.00 0.00 83 1017.3
20260507190233 16 183 0.0 1.6 0.00 0.00 0.00 83 1017.5
20260507190034 16 180 0.0 1.6 0.00 0.00 0.00 82 1017.2
20260507185833 16 180 0.0 1.6 0.00 0.00 0.00 82 1017.3
20260507185633 16 269 0.0 3.2 0.00 0.00 0.00 82 1017.1
20260507185434 17 232 0.0 3.2 0.00 0.00 0.00 81 1017.3
20260507185233 17 279 0.0 3.2 0.00 0.00 0.00 81 1017.4
20260507185033 16 201 0.0 3.2 0.00 0.00 0.00 81 1017.4
20260507184833 16 279 0.0 3.2 0.00 0.00 0.00 81 1017.3
20260507184633 16 321 0.0 1.6 0.00 0.00 0.00 81 1017.3
20260507184433 16 174 0.0 1.6 0.00 0.00 0.00 81 1017.1
20260507184233 16 148 0.0 1.6 0.00 0.00 0.00 81 1017.3
20260507184033 16 50 0.0 3.2 0.00 0.00 0.00 81 1017.1
20260507183834 17 191 0.0 3.2 0.00 0.00 0.00 81 1017.1
20260507183634 17 186 0.0 3.2 0.00 0.00 0.00 81 1017.0
20260507183434 17 225 0.0 3.2 0.00 0.00 0.00 80 1017.0
20260507183233 17 180 0.0 3.2 0.00 0.00 0.00 80 1017.2
20260507183036 17 202 1.6 3.2 0.00 0.00 0.00 79 1017.1
20260507182834 17 197 1.6 3.2 0.00 0.00 0.00 79 1017.1
20260507182634 17 242 0.0 3.2 0.00 0.00 0.00 79 1017.3
20260507182433 17 224 0.0 3.2 0.00 0.00 0.00 78 1017.3
20260507182234 17 197 0.0 3.2 0.00 0.00 0.00 78 1017.1
20260507182033 17 256 0.0 3.2 0.00 0.00 0.00 78 1017.1
20260507181832 17 293 1.6 1.6 0.00 0.00 0.00 78 1017.2
20260507181634 17 185 0.0 3.2 0.00 0.00 0.00 78 1017.0
20260507181433 17 185 0.0 3.2 0.00 0.00 0.00 77 1017.1
20260507181235 17 195 0.0 3.2 0.00 0.00 0.00 77 1017.1
20260507181034 17 217 0.0 3.2 0.00 0.00 0.00 78 1017.2
20260507180810 17 233 0.0 3.2 0.00 0.00 0.00 77 1017.0
20260507180609 17 181 0.0 3.2 0.00 0.00 0.00 77 1017.0
20260507180410 17 199 1.6 3.2 0.00 0.00 0.00 77 1017.1
20260507180209 17 188 1.6 3.2 0.00 0.00 0.00 76 1017.0
20260507180010 17 180 0.0 1.6 0.00 0.00 0.00 74 1017.0
20260507175810 18 150 0.0 3.2 0.00 0.00 0.00 74 1016.8
20260507175609 18 22 0.0 3.2 0.00 0.00 0.00 74 1016.7
20260507175409 18 22 0.0 3.2 0.00 0.00 0.00 74 1016.7
20260507175210 17 15 0.0 3.2 0.00 0.00 0.00 74 1016.8
20260507174945 17 162 0.0 3.2 0.00 0.00 0.00 74 1017.1
20260507174745 17 3 0.0 3.2 0.00 0.00 0.00 74 1016.7
20260507174546 17 166 0.0 3.2 0.00 0.00 0.00 74 1016.6
20260507174346 17 201 0.0 3.2 0.00 0.00 0.00 74 1017.0
20260507174145 18 241 1.6 3.2 0.00 0.00 0.00 73 1016.7
20260507173946 18 273 3.2 3.2 0.00 0.00 0.00 73 1016.8
20260507173746 18 227 1.6 3.2 0.00 0.00 0.00 73 1016.8
20260507173545 18 276 1.6 3.2 0.00 0.00 0.00 74 1016.8
20260507173345 18 241 0.0 3.2 0.00 0.00 0.00 74 1016.6
20260507173145 18 209 0.0 4.8 0.00 0.00 0.00 73 1016.6
20260507172945 18 262 1.6 4.8 0.00 0.00 0.00 73 1016.7
20260507172745 18 329 1.6 4.8 0.00 0.00 0.00 74 1016.6
20260507172546 18 313 0.0 4.8 0.00 0.00 0.00 74 1016.5
20260507172345 18 257 0.0 4.8 0.00 0.00 0.00 74 1016.4
20260507172145 18 208 1.6 3.2 0.00 0.00 0.00 73 1016.5
20260507171945 18 209 1.6 3.2 0.00 0.00 0.00 73 1016.6
20260507171745 18 278 1.6 3.2 0.00 0.00 0.00 73 1016.8
20260507171545 18 224 0.0 3.2 0.00 0.00 0.00 73 1016.6
20260507171347 18 258 3.2 3.2 0.00 0.00 0.00 73 1016.7
20260507171146 18 276 1.6 4.8 0.00 0.00 0.00 72 1016.7
20260507170946 18 241 3.2 4.8 0.00 0.00 0.00 72 1016.7
20260507170746 18 217 0.0 4.8 0.00 0.00 0.00 72 1016.5
20260507170546 18 214 1.6 4.8 0.00 0.00 0.00 72 1016.6
20260507170346 18 248 3.2 4.8 0.00 0.00 0.00 72 1016.6
20260507170145 18 188 0.0 4.8 0.00 0.00 0.00 72 1016.7
20260507165946 18 197 0.0 4.8 0.00 0.00 0.00 72 1016.7
20260507165746 18 215 0.0 4.8 0.00 0.00 0.00 72 1016.7
20260507165546 18 212 3.2 4.8 0.00 0.00 0.00 71 1016.6
20260507165346 18 200 4.8 4.8 0.00 0.00 0.00 71 1016.7
20260507165146 18 219 0.0 4.8 0.00 0.00 0.00 71 1016.8
20260507164946 18 220 3.2 4.8 0.00 0.00 0.00 71 1016.7
20260507164746 18 224 1.6 4.8 0.00 0.00 0.00 71 1016.8
20260507164547 18 201 0.0 4.8 0.00 0.00 0.00 71 1016.8
20260507164346 18 216 3.2 4.8 0.00 0.00 0.00 71 1016.7
20260507164145 18 215 3.2 4.8 0.00 0.00 0.00 70 1016.7
20260507163945 18 190 0.0 4.8 0.00 0.00 0.00 69 1016.6
20260507163745 18 251 3.2 4.8 0.00 0.00 0.00 69 1016.6
20260507163545 19 265 3.2 4.8 0.00 0.00 0.00 68 1016.5
20260507163345 18 255 1.6 4.8 0.00 0.00 0.00 69 1016.8
20260507163147 18 287 3.2 4.8 0.00 0.00 0.00 69 1016.8
20260507162945 18 249 3.2 4.8 0.00 0.00 0.00 69 1016.6
20260507162745 19 210 1.6 4.8 0.00 0.00 0.00 69 1016.6
20260507162546 19 223 3.2 6.4 0.00 0.00 0.00 69 1016.6
20260507162346 19 263 1.6 8.0 0.00 0.00 0.00 69 1016.7
20260507162146 19 231 0.0 8.0 0.00 0.00 0.00 69 1016.6
20260507161946 19 252 3.2 8.0 0.00 0.00 0.00 69 1016.4
20260507161746 18 246 3.2 8.0 0.00 0.00 0.00 70 1016.7
20260507161545 18 298 3.2 8.0 0.00 0.00 0.00 70 1016.5
20260507161346 18 264 1.6 6.4 0.00 0.00 0.00 71 1016.5
20260507161146 18 189 0.0 6.4 0.00 0.00 0.00 71 1016.8
20260507160946 18 198 3.2 6.4 0.00 0.00 0.00 71 1016.5
20260507160746 19 178 4.8 6.4 0.00 0.00 0.00 70 1016.5
20260507160545 19 229 3.2 6.4 0.00 0.00 0.00 70 1016.6
20260507160345 19 230 1.6 6.4 0.00 0.00 0.00 70 1016.5
20260507160145 19 224 1.6 6.4 0.00 0.00 0.00 70 1016.6
20260507155945 19 210 1.6 6.4 0.00 0.00 0.00 71 1016.6
20260507155745 19 192 1.6 6.4 0.00 0.00 0.00 70 1016.6
20260507155546 19 230 1.6 6.4 0.00 0.00 0.00 70 1016.7
20260507155346 19 278 3.2 6.4 0.00 0.00 0.00 70 1016.7
20260507155146 19 244 0.0 4.8 0.00 0.00 0.00 69 1016.5
20260507154947 19 238 3.2 4.8 0.00 0.00 0.00 69 1016.5
20260507154745 19 199 3.2 4.8 0.00 0.00 0.00 69 1016.4
20260507154545 19 213 1.6 4.8 0.00 0.00 0.00 68 1016.5
20260507154345 19 229 3.2 4.8 0.00 0.00 0.00 68 1016.6
20260507154145 19 216 1.6 4.8 0.00 0.00 0.00 68 1016.4
20260507153945 19 201 1.6 6.4 0.00 0.00 0.00 67 1016.5
20260507153745 19 184 3.2 6.4 0.00 0.00 0.00 68 1016.6
20260507153533 19 204 3.2 6.4 0.00 0.00 0.00 67 1016.6
20260507153333 19 162 3.2 6.4 0.00 0.00 0.00 67 1016.5
20260507153133 19 233 3.2 6.4 0.00 0.00 0.00 66 1016.6
20260507152933 19 214 3.2 6.4 0.00 0.00 0.00 65 1016.5
20260507152733 19 226 1.6 6.4 0.00 0.00 0.00 66 1016.6
20260507152533 19 229 3.2 6.4 0.00 0.00 0.00 66 1016.7
20260507152333 19 222 1.6 6.4 0.00 0.00 0.00 65 1016.5
20260507152133 19 227 3.2 6.4 0.00 0.00 0.00 65 1016.7
20260507151933 19 199 3.2 6.4 0.00 0.00 0.00 65 1016.6
20260507151733 20 203 1.6 6.4 0.00 0.00 0.00 65 1016.4
20260507151533 20 254 3.2 6.4 0.00 0.00 0.00 64 1016.6
20260507151333 20 230 3.2 4.8 0.00 0.00 0.00 64 1016.6
20260507151133 20 187 3.2 4.8 0.00 0.00 0.00 64 1016.6
20260507150933 20 238 1.6 6.4 0.00 0.00 0.00 65 1016.6
20260507150733 20 194 3.2 6.4 0.00 0.00 0.00 64 1016.6
20260507150533 20 191 1.6 6.4 0.00 0.00 0.00 64 1016.7
20260507150334 20 190 0.0 6.4 0.00 0.00 0.00 64 1016.6
20260507150134 20 191 3.2 6.4 0.00 0.00 0.00 63 1016.8
20260507145933 20 209 3.2 6.4 0.00 0.00 0.00 63 1016.6
20260507145733 20 233 1.6 6.4 0.00 0.00 0.00 63 1016.8
20260507145533 20 235 3.2 8.0 0.00 0.00 0.00 62 1016.6
20260507145333 20 209 1.6 8.0 0.00 0.00 0.00 63 1016.8
20260507145133 20 211 1.6 8.0 0.00 0.00 0.00 63 1017.1
20260507144933 20 214 4.8 8.0 0.00 0.00 0.00 62 1016.6
20260507144733 20 252 3.2 8.0 0.00 0.00 0.00 62 1016.8
20260507144534 20 211 1.6 8.0 0.00 0.00 0.00 62 1016.7
20260507144333 20 269 0.0 8.0 0.00 0.00 0.00 62 1016.7
20260507144133 20 284 4.8 8.0 0.00 0.00 0.00 61 1016.8
20260507143933 20 195 3.2 12.9 0.00 0.00 0.00 61 1016.5
20260507143733 20 241 4.8 12.9 0.00 0.00 0.00 61 1016.7
20260507143533 20 235 4.8 12.9 0.00 0.00 0.00 61 1017.0
20260507143333 20 252 8.0 12.9 0.00 0.00 0.00 61 1016.5
20260507143133 20 255 3.2 12.9 0.00 0.00 0.00 61 1016.8
20260507142933 20 243 3.2 9.7 0.00 0.00 0.00 60 1017.0
20260507142733 20 265 3.2 9.7 0.00 0.00 0.00 59 1016.6
20260507142533 20 237 3.2 9.7 0.00 0.00 0.00 61 1016.7
20260507142333 20 241 6.4 11.3 0.00 0.00 0.00 60 1016.7
20260507142135 20 292 4.8 11.3 0.00 0.00 0.00 60 1017.0
20260507141934 20 279 3.2 11.3 0.00 0.00 0.00 60 1017.0
20260507141733 20 203 4.8 12.9 0.00 0.00 0.00 61 1016.7
20260507141533 20 252 6.4 12.9 0.00 0.00 0.00 61 1016.8
20260507141333 20 264 3.2 12.9 0.00 0.00 0.00 60 1016.6
20260507141134 20 225 9.7 12.9 0.00 0.00 0.00 60 1016.8
20260507140933 20 234 4.8 12.9 0.00 0.00 0.00 60 1017.0
20260507140733 20 237 8.0 12.9 0.00 0.00 0.00 59 1016.8
20260507140533 20 251 9.7 14.5 0.00 0.00 0.00 58 1016.6
20260507140333 20 220 8.0 14.5 0.00 0.00 0.00 58 1016.8
20260507140133 20 230 6.4 14.5 0.00 0.00 0.00 59 1016.7
20260507135933 20 229 3.2 14.5 0.00 0.00 0.00 59 1017.1
20260507135733 20 246 6.4 16.1 0.00 0.00 0.00 60 1016.7
20260507135533 20 212 3.2 16.1 0.00 0.00 0.00 61 1016.8
20260507135333 20 229 1.6 16.1 0.00 0.00 0.00 61 1016.6
20260507135133 20 233 4.8 16.1 0.00 0.00 0.00 62 1016.7
20260507134934 20 233 8.0 16.1 0.00 0.00 0.00 61 1016.6
20260507134734 20 252 1.6 14.5 0.00 0.00 0.00 61 1016.5
20260507134534 20 234 3.2 16.1 0.00 0.00 0.00 61 1016.6
20260507134334 21 274 1.6 16.1 0.00 0.00 0.00 61 1016.8
20260507134134 21 276 3.2 16.1 0.00 0.00 0.00 60 1016.5
20260507133935 21 235 8.0 16.1 0.00 0.00 0.00 59 1016.6
20260507133739 21 268 4.8 16.1 0.00 0.00 0.00 59 1016.7
20260507133534 21 287 3.2 16.1 0.00 0.00 0.00 58 1016.6
20260507133334 21 274 9.7 16.1 0.00 0.00 0.00 59 1016.7
20260507133134 21 275 6.4 16.1 0.00 0.00 0.00 59 1016.4
20260507132934 21 285 4.8 16.1 0.00 0.00 0.00 58 1016.4
20260507132734 21 202 6.4 16.1 0.00 0.00 0.00 59 1016.6
20260507132534 21 239 1.6 17.7 0.00 0.00 0.00 59 1016.4
20260507132334 22 274 4.8 17.7 0.00 0.00 0.00 57 1016.5
20260507132134 22 230 9.7 17.7 0.00 0.00 0.00 58 1016.5
20260507131933 22 255 3.2 17.7 0.00 0.00 0.00 58 1016.4
20260507131734 22 236 6.4 17.7 0.00 0.00 0.00 58 1016.4
20260507131533 22 221 11.3 16.1 0.00 0.00 0.00 57 1016.5
20260507131334 22 217 8.0 17.7 0.00 0.00 0.00 56 1016.5
20260507131134 22 253 3.2 17.7 0.00 0.00 0.00 56 1016.5
20260507130933 22 276 4.8 17.7 0.00 0.00 0.00 58 1016.5
20260507130734 23 221 9.7 17.7 0.00 0.00 0.00 58 1016.5
20260507130533 23 232 4.8 17.7 0.00 0.00 0.00 58 1016.5
20260507130333 23 218 6.4 14.5 0.00 0.00 0.00 58 1016.4
20260507130133 23 212 9.7 14.5 0.00 0.00 0.00 57 1016.4
20260507125933 24 222 8.0 12.9 0.00 0.00 0.00 57 1016.4
20260507125734 24 188 6.4 11.3 0.00 0.00 0.00 55 1016.4
20260507125533 24 208 6.4 11.3 0.00 0.00 0.00 55 1016.4
20260507125333 25 193 6.4 11.3 0.00 0.00 0.00 53 1016.5
20260507125133 25 183 6.4 11.3 0.00 0.00 0.00 51 1016.4
20260507124933 26 178 3.2 6.4 0.00 0.00 0.00 49 1016.5
20260507124733 26 213 0.0 6.4 0.00 0.00 0.00 47 1016.3
20260507124533 26 209 1.6 6.4 0.00 0.00 0.00 48 1016.2
20260507124333 26 297 0.0 6.4 0.00 0.00 0.00 46 1016.4
20260507124133 26 150 1.6 6.4 0.00 0.00 0.00 49 1016.6
20260507123933 26 14 3.2 6.4 0.00 0.00 0.00 47 1016.4
20260507123733 26 324 1.6 6.4 0.00 0.00 0.00 48 1016.5
20260507123521 26 133 3.2 6.4 0.00 0.00 0.00 49 1016.6
20260507123322 26 178 1.6 4.8 0.00 0.00 0.00 48 1016.5
20260507123121 26 224 3.2 4.8 0.00 0.00 0.00 46 1016.6
20260507122921 26 30 3.2 6.4 0.00 0.00 0.00 47 1016.7
20260507122722 25 344 1.6 6.4 0.00 0.00 0.00 47 1016.5
20260507122521 26 105 0.0 6.4 0.00 0.00 0.00 47 1016.5
20260507122321 26 281 0.0 6.4 0.00 0.00 0.00 47 1016.6
20260507122121 26 325 0.0 6.4 0.00 0.00 0.00 47 1016.7
20260507121921 26 357 3.2 8.0 0.00 0.00 0.00 45 1016.7
20260507121721 26 278 1.6 8.0 0.00 0.00 0.00 46 1016.6
20260507121521 26 134 3.2 9.7 0.00 0.00 0.00 46 1016.8
20260507121322 26 350 3.2 9.7 0.00 0.00 0.00 45 1016.5
20260507121122 26 173 3.2 9.7 0.00 0.00 0.00 44 1016.6
20260507120921 27 349 1.6 9.7 0.00 0.00 0.00 42 1016.5
20260507120721 27 181 3.2 9.7 0.00 0.00 0.00 44 1016.5
20260507120521 27 126 3.2 8.0 0.00 0.00 0.00 45 1016.5
20260507120321 27 120 3.2 6.4 0.00 0.00 0.00 43 1016.4
20260507120121 27 225 3.2 8.0 0.00 0.00 0.00 44 1016.5
20260507115921 27 200 3.2 8.0 0.00 0.00 0.00 43 1016.4
20260507115721 26 72 4.8 8.0 0.00 0.00 0.00 44 1016.7
20260507115521 26 218 0.0 8.0 0.00 0.00 0.00 43 1016.5
20260507115322 26 11 4.8 9.7 0.00 0.00 0.00 43 1016.5
20260507115121 27 109 1.6 9.7 0.00 0.00 0.00 44 1016.7
20260507114921 26 262 0.0 9.7 0.00 0.00 0.00 45 1016.7
20260507114721 26 163 3.2 9.7 0.00 0.00 0.00 43 1016.7
20260507114521 26 145 0.0 9.7 0.00 0.00 0.00 44 1016.7
20260507114321 26 144 8.0 8.0 0.00 0.00 0.00 44 1016.7
20260507114121 26 212 1.6 6.4 0.00 0.00 0.00 42 1016.5
20260507113921 26 340 3.2 6.4 0.00 0.00 0.00 44 1016.6
20260507113721 26 223 3.2 8.0 0.00 0.00 0.00 47 1017.0
20260507113522 26 332 1.6 8.0 0.00 0.00 0.00 45 1016.8
20260507113321 26 114 1.6 8.0 0.00 0.00 0.00 45 1016.8
20260507113121 25 59 3.2 8.0 0.00 0.00 0.00 46 1016.8
20260507112922 25 41 3.2 8.0 0.00 0.00 0.00 46 1016.8
20260507112721 25 317 0.0 6.4 0.00 0.00 0.00 46 1017.0
20260507112521 25 224 1.6 6.4 0.00 0.00 0.00 47 1017.0
20260507112321 25 357 4.8 6.4 0.00 0.00 0.00 47 1016.8
20260507112121 25 23 0.0 6.4 0.00 0.00 0.00 47 1016.6
20260507111922 25 242 0.0 6.4 0.00 0.00 0.00 48 1017.0
20260507111722 25 151 3.2 9.7 0.00 0.00 0.00 48 1016.8
20260507111521 25 326 0.0 9.7 0.00 0.00 0.00 47 1016.8
20260507111322 25 7 3.2 9.7 0.00 0.00 0.00 46 1017.1
20260507111121 25 9 3.2 9.7 0.00 0.00 0.00 47 1017.1
20260507110922 25 330 4.8 9.7 0.00 0.00 0.00 46 1016.8
20260507110721 25 119 0.0 9.7 0.00 0.00 0.00 46 1016.8
20260507110521 25 286 3.2 8.0 0.00 0.00 0.00 47 1017.0
20260507110321 25 6 1.6 8.0 0.00 0.00 0.00 45 1017.0
20260507110121 25 27 3.2 8.0 0.00 0.00 0.00 47 1016.8
20260507105921 25 34 3.2 8.0 0.00 0.00 0.00 47 1016.7
20260507105721 25 193 4.8 6.4 0.00 0.00 0.00 47 1017.0
20260507105521 25 82 0.0 6.4 0.00 0.00 0.00 47 1017.1
20260507105322 25 19 0.0 4.8 0.00 0.00 0.00 45 1016.8
20260507105121 25 331 3.2 4.8 0.00 0.00 0.00 46 1016.7
20260507104921 25 342 1.6 4.8 0.00 0.00 0.00 46 1017.2
20260507104722 25 222 3.2 6.4 0.00 0.00 0.00 47 1017.0
20260507104521 25 243 4.8 6.4 0.00 0.00 0.00 47 1016.8
20260507104321 25 338 4.8 6.4 0.00 0.00 0.00 47 1017.1
20260507104121 25 14 3.2 6.4 0.00 0.00 0.00 47 1016.8
20260507103921 25 328 0.0 6.4 0.00 0.00 0.00 48 1016.7
20260507103721 25 123 3.2 9.7 0.00 0.00 0.00 49 1017.1
20260507103521 24 294 3.2 9.7 0.00 0.00 0.00 50 1016.8
20260507103321 23 127 0.0 9.7 0.00 0.00 0.00 50 1017.0
20260507103121 23 21 1.6 9.7 0.00 0.00 0.00 50 1017.0
20260507102921 24 357 3.2 9.7 0.00 0.00 0.00 50 1016.8
20260507102721 24 254 0.0 8.0 0.00 0.00 0.00 47 1017.1
20260507102522 24 356 0.0 8.0 0.00 0.00 0.00 50 1017.0
20260507102322 25 352 8.0 8.0 0.00 0.00 0.00 50 1017.2
20260507102122 25 151 3.2 8.0 0.00 0.00 0.00 51 1017.1
20260507101921 25 183 1.6 8.0 0.00 0.00 0.00 48 1017.3
20260507101721 25 149 3.2 8.0 0.00 0.00 0.00 50 1017.4
20260507101522 24 130 0.0 8.0 0.00 0.00 0.00 50 1017.1
20260507101321 24 137 3.2 8.0 0.00 0.00 0.00 49 1017.2
20260507101121 24 204 4.8 8.0 0.00 0.00 0.00 49 1017.4
20260507100921 24 144 6.4 8.0 0.00 0.00 0.00 50 1017.3
20260507100721 24 220 6.4 8.0 0.00 0.00 0.00 48 1017.2
20260507100523 23 196 1.6 8.0 0.00 0.00 0.00 49 1017.2
20260507100322 24 159 3.2 8.0 0.00 0.00 0.00 49 1017.4
20260507100122 23 156 3.2 8.0 0.00 0.00 0.00 50 1017.6
20260507095922 23 186 3.2 8.0 0.00 0.00 0.00 49 1017.3
20260507095722 24 183 3.2 8.0 0.00 0.00 0.00 49 1017.3
20260507095521 23 180 1.6 6.4 0.00 0.00 0.00 50 1017.4
20260507095322 23 200 4.8 6.4 0.00 0.00 0.00 51 1017.4
20260507095122 23 192 4.8 6.4 0.00 0.00 0.00 51 1017.5
20260507094922 23 189 0.0 8.0 0.00 0.00 0.00 51 1017.5
20260507094722 23 161 4.8 8.0 0.00 0.00 0.00 51 1017.4
20260507094509 23 322 1.6 8.0 0.00 0.00 0.00 49 1017.5
20260507094310 23 272 1.6 8.0 0.00 0.00 0.00 53 1017.5
20260507094109 23 147 8.0 8.0 0.00 0.00 0.00 49 1017.5
20260507093909 23 227 0.0 6.4 0.00 0.00 0.00 51 1017.6
20260507093709 23 127 0.0 6.4 0.00 0.00 0.00 50 1017.6
20260507093509 23 183 3.2 6.4 0.00 0.00 0.00 53 1017.6
20260507093309 23 132 1.6 6.4 0.00 0.00 0.00 50 1017.6
20260507093110 23 214 3.2 6.4 0.00 0.00 0.00 52 1017.6
20260507092910 23 130 0.0 6.4 0.00 0.00 0.00 51 1017.7
20260507092710 23 143 3.2 8.0 0.00 0.00 0.00 51 1017.8
20260507092509 23 170 3.2 8.0 0.00 0.00 0.00 53 1017.6
20260507092309 22 242 0.0 8.0 0.00 0.00 0.00 52 1017.9
20260507092109 22 104 0.0 8.0 0.00 0.00 0.00 52 1017.6
20260507091910 22 273 1.6 8.0 0.00 0.00 0.00 55 1017.7
20260507091709 22 188 3.2 8.0 0.00 0.00 0.00 53 1017.6
20260507091509 22 154 3.2 8.0 0.00 0.00 0.00 53 1017.7
20260507091309 22 199 6.4 8.0 0.00 0.00 0.00 53 1017.8
20260507091109 22 351 3.2 8.0 0.00 0.00 0.00 53 1017.7
20260507090909 22 218 0.0 8.0 0.00 0.00 0.00 55 1017.6
20260507090709 22 140 6.4 8.0 0.00 0.00 0.00 54 1017.8
20260507090508 22 349 4.8 8.0 0.00 0.00 0.00 55 1017.6
20260507090310 22 315 1.6 6.4 0.00 0.00 0.00 54 1017.5
20260507090109 22 48 6.4 6.4 0.00 0.00 0.00 53 1017.6
20260507085909 22 165 0.0 6.4 0.00 0.00 0.00 54 1017.8
20260507085710 22 144 0.0 6.4 0.00 0.00 0.00 54 1017.8
20260507085509 22 358 1.6 6.4 0.00 0.00 0.00 54 1017.7
20260507085309 22 177 1.6 6.4 0.00 0.00 0.00 54 1017.7
20260507085109 22 33 0.0 6.4 0.00 0.00 0.00 54 1017.6
20260507084910 22 208 0.0 4.8 0.00 0.00 0.00 56 1017.6
20260507084709 22 126 3.2 6.4 0.00 0.00 0.00 55 1017.8
20260507084510 22 156 3.2 6.4 0.00 0.00 0.00 55 1017.6
20260507084309 22 213 3.2 6.4 0.00 0.00 0.00 54 1017.7
20260507084108 22 329 1.6 6.4 0.00 0.00 0.00 54 1017.6
20260507083909 22 179 4.8 6.4 0.00 0.00 0.00 56 1017.7
20260507083708 22 161 3.2 6.4 0.00 0.00 0.00 55 1017.8
20260507083508 22 281 1.6 8.0 0.00 0.00 0.00 54 1017.8
20260507083308 21 171 1.6 8.0 0.00 0.00 0.00 55 1017.8
20260507083108 21 147 0.0 8.0 0.00 0.00 0.00 56 1017.8
20260507082908 21 202 1.6 8.0 0.00 0.00 0.00 57 1018.0
20260507082708 21 188 3.2 8.0 0.00 0.00 0.00 57 1018.0
20260507082508 21 222 3.2 6.4 0.00 0.00 0.00 59 1018.0
20260507082308 21 214 0.0 6.4 0.00 0.00 0.00 56 1018.0
20260507082108 21 214 3.2 6.4 0.00 0.00 0.00 57 1018.1
20260507081908 21 175 3.2 3.2 0.00 0.00 0.00 57 1017.8
20260507081708 21 326 0.0 4.8 0.00 0.00 0.00 56 1018.1
20260507081523 21 164 0.0 4.8 0.00 0.00 0.00 57 1017.8
20260507081309 21 200 0.0 4.8 0.00 0.00 0.00 58 1017.9
20260507081108 21 224 0.0 4.8 0.00 0.00 0.00 58 1018.0
20260507080908 20 148 0.0 6.4 0.00 0.00 0.00 58 1017.8
20260507080708 20 359 1.6 6.4 0.00 0.00 0.00 58 1017.8
20260507080508 20 211 0.0 6.4 0.00 0.00 0.00 59 1017.9
20260507080308 20 133 1.6 6.4 0.00 0.00 0.00 59 1017.6
20260507075908 20 142 3.2 8.0 0.00 0.00 0.00 59 1017.5
20260507075708 20 167 1.6 8.0 0.00 0.00 0.00 61 1017.7
20260507075508 20 215 4.8 8.0 0.00 0.00 0.00 62 1017.8
20260507075309 20 246 3.2 8.0 0.00 0.00 0.00 62 1017.7
20260507075109 20 294 0.0 6.4 0.00 0.00 0.00 60 1017.7
20260507074909 20 157 4.8 6.4 0.00 0.00 0.00 59 1017.7
20260507074708 20 333 0.0 4.8 0.00 0.00 0.00 59 1017.8
20260507074509 20 56 1.6 6.4 0.00 0.00 0.00 59 1017.6
20260507074308 20 34 0.0 6.4 0.00 0.00 0.00 60 1017.8
20260507074108 20 129 1.6 6.4 0.00 0.00 0.00 62 1017.9
20260507073908 19 202 3.2 6.4 0.00 0.00 0.00 63 1017.8
20260507073708 19 123 1.6 6.4 0.00 0.00 0.00 61 1017.7
20260507073508 20 150 6.4 6.4 0.00 0.00 0.00 61 1017.7
20260507073310 20 161 0.0 6.4 0.00 0.00 0.00 60 1017.8
20260507073109 20 82 0.0 6.4 0.00 0.00 0.00 62 1017.8
20260507072909 20 13 3.2 4.8 0.00 0.00 0.00 60 1017.9
20260507072709 20 89 0.0 6.4 0.00 0.00 0.00 60 1017.9
20260507072509 19 244 0.0 8.0 0.00 0.00 0.00 61 1017.6
20260507072308 19 89 0.0 8.0 0.00 0.00 0.00 62 1017.8
20260507072109 19 164 0.0 8.0 0.00 0.00 0.00 61 1017.9
20260507071909 19 213 0.0 8.0 0.00 0.00 0.00 62 1017.7
20260507071709 20 168 1.6 8.0 0.00 0.00 0.00 60 1018.0
20260507071508 20 134 0.0 4.8 0.00 0.00 0.00 61 1017.8
20260507071308 19 220 1.6 4.8 0.00 0.00 0.00 61 1017.9
20260507071108 18 185 1.6 4.8 0.00 0.00 0.00 63 1017.9
20260507070908 18 4 0.0 4.8 0.00 0.00 0.00 63 1017.9
20260507070708 18 37 4.8 4.8 0.00 0.00 0.00 62 1017.9
20260507070508 18 63 3.2 4.8 0.00 0.00 0.00 63 1017.9
20260507070308 18 147 4.8 4.8 0.00 0.00 0.00 63 1017.8
20260507070108 18 159 3.2 4.8 0.00 0.00 0.00 63 1018.1
20260507065909 18 7 1.6 3.2 0.00 0.00 0.00 63 1018.0
20260507065708 18 202 0.0 4.8 0.00 0.00 0.00 64 1018.0
20260507065508 18 57 1.6 4.8 0.00 0.00 0.00 63 1018.0
20260507065308 18 121 1.6 4.8 0.00 0.00 0.00 64 1018.0
20260507065110 17 105 3.2 4.8 0.00 0.00 0.00 64 1018.0
20260507064909 18 176 3.2 4.8 0.00 0.00 0.00 65 1017.9
20260507064708 17 65 1.6 4.8 0.00 0.00 0.00 66 1018.0
20260507064508 18 141 0.0 4.8 0.00 0.00 0.00 65 1018.0
20260507064308 17 151 3.2 4.8 0.00 0.00 0.00 66 1018.1
20260507064108 17 205 0.0 4.8 0.00 0.00 0.00 68 1018.0
20260507063908 17 187 3.2 4.8 0.00 0.00 0.00 65 1018.0
20260507063708 17 165 3.2 4.8 0.00 0.00 0.00 65 1018.0
20260507063508 17 359 1.6 4.8 0.00 0.00 0.00 65 1018.1
20260507063308 17 139 0.0 4.8 0.00 0.00 0.00 66 1018.3
20260507063108 17 132 3.2 6.4 0.00 0.00 0.00 67 1018.1
20260507062908 17 3 1.6 6.4 0.00 0.00 0.00 67 1018.1
20260507062708 17 132 0.0 6.4 0.00 0.00 0.00 67 1018.3
20260507062508 16 122 0.0 6.4 0.00 0.00 0.00 70 1017.9
20260507062308 16 168 3.2 6.4 0.00 0.00 0.00 69 1018.1
20260507062108 16 161 3.2 4.8 0.00 0.00 0.00 68 1018.1
20260507061908 17 139 4.8 4.8 0.00 0.00 0.00 68 1017.9
20260507061708 16 14 0.0 4.8 0.00 0.00 0.00 68 1017.9
20260507061308 16 1 1.6 4.8 0.00 0.00 0.00 68 1018.0
20260507061108 17 94 0.0 4.8 0.00 0.00 0.00 67 1017.8
20260507060910 16 123 4.8 4.8 0.00 0.00 0.00 68 1018.1
20260507060708 16 121 0.0 4.8 0.00 0.00 0.00 69 1017.9
20260507060508 16 152 1.6 4.8 0.00 0.00 0.00 70 1018.0
20260507060309 15 40 3.2 4.8 0.00 0.00 0.00 71 1017.9
20260507060109 15 69 1.6 4.8 0.00 0.00 0.00 72 1017.9
20260507055909 15 135 0.0 4.8 0.00 0.00 0.00 75 1017.8
20260507055709 15 136 4.8 6.4 0.00 0.00 0.00 74 1018.0
20260507055509 14 178 3.2 6.4 0.00 0.00 0.00 75 1017.9
20260507055309 15 172 3.2 6.4 0.00 0.00 0.00 74 1018.0
20260507055108 15 163 3.2 6.4 0.00 0.00 0.00 75 1017.9
20260507054908 14 129 1.6 6.4 0.00 0.00 0.00 75 1018.1
20260507054709 14 131 3.2 4.8 0.00 0.00 0.00 75 1018.0
20260507054508 14 123 1.6 4.8 0.00 0.00 0.00 75 1018.1
20260507054308 14 159 4.8 4.8 0.00 0.00 0.00 76 1017.9
20260507054108 14 142 3.2 4.8 0.00 0.00 0.00 77 1018.1
20260507053909 14 199 1.6 3.2 0.00 0.00 0.00 77 1018.0
20260507053709 14 180 1.6 3.2 0.00 0.00 0.00 77 1018.0
20260507053509 14 169 0.0 3.2 0.00 0.00 0.00 76 1018.0
20260507053309 13 220 3.2 3.2 0.00 0.00 0.00 76 1017.9
20260507053109 13 142 0.0 3.2 0.00 0.00 0.00 77 1018.1
20260507052909 13 300 3.2 3.2 0.00 0.00 0.00 77 1018.0
20260507052709 13 304 0.0 3.2 0.00 0.00 0.00 77 1017.9
20260507052508 13 242 0.0 3.2 0.00 0.00 0.00 79 1017.9
20260507052308 13 217 0.0 3.2 0.00 0.00 0.00 78 1018.0
20260507052108 13 258 1.6 3.2 0.00 0.00 0.00 79 1018.0
20260507051909 13 142 0.0 3.2 0.00 0.00 0.00 79 1017.9
20260507051711 13 159 0.0 3.2 0.00 0.00 0.00 78 1017.9
20260507051508 13 143 0.0 3.2 0.00 0.00 0.00 78 1018.1
20260507051308 13 191 0.0 3.2 0.00 0.00 0.00 79 1018.0
20260507051108 13 158 0.0 3.2 0.00 0.00 0.00 79 1018.0
20260507050908 12 68 0.0 3.2 0.00 0.00 0.00 78 1017.8
20260507050708 12 143 0.0 3.2 0.00 0.00 0.00 80 1017.9
20260507050508 12 155 0.0 3.2 0.00 0.00 0.00 79 1018.0
20260507050311 11 114 1.6 3.2 0.00 0.00 0.00 83 1017.9
20260507050108 11 135 0.0 3.2 0.00 0.00 0.00 84 1017.9
20260507045908 11 119 0.0 3.2 0.00 0.00 0.00 84 1017.9
20260507045708 10 133 0.0 3.2 0.00 0.00 0.00 86 1017.9
20260507045508 10 189 3.2 3.2 0.00 0.00 0.00 85 1017.8
20260507045308 10 130 0.0 3.2 0.00 0.00 0.00 85 1017.7
20260507045108 10 128 0.0 3.2 0.00 0.00 0.00 86 1017.9
20260507044908 10 93 0.0 3.2 0.00 0.00 0.00 87 1017.7
20260507044708 10 134 0.0 3.2 0.00 0.00 0.00 88 1017.9
20260507044308 10 205 0.0 3.2 0.00 0.00 0.00 86 1017.8
20260507044108 10 139 0.0 3.2 0.00 0.00 0.00 86 1017.8
20260507043908 10 113 0.0 3.2 0.00 0.00 0.00 86 1017.6
20260507043708 10 101 1.6 3.2 0.00 0.00 0.00 86 1017.6
20260507043508 10 59 0.0 3.2 0.00 0.00 0.00 87 1017.5
20260507043309 9 108 1.6 3.2 0.00 0.00 0.00 87 1017.7
20260507043109 9 71 0.0 3.2 0.00 0.00 0.00 88 1017.7
20260507042909 9 133 0.0 3.2 0.00 0.00 0.00 88 1017.8
20260507042709 9 115 3.2 3.2 0.00 0.00 0.00 89 1017.9
20260507042508 8 127 1.6 3.2 0.00 0.00 0.00 91 1017.8
20260507042308 8 68 1.6 3.2 0.00 0.00 0.00 92 1017.6
20260507042108 8 300 0.0 3.2 0.00 0.00 0.00 93 1017.7
20260507041908 8 340 0.0 3.2 0.00 0.00 0.00 94 1017.6
20260507041708 7 290 1.6 3.2 0.00 0.00 0.00 95 1017.6
20260507041508 7 355 0.0 4.8 0.00 0.00 0.00 95 1017.5
20260507041308 7 340 1.6 4.8 0.00 0.00 0.00 96 1017.6
20260507041109 7 320 0.0 4.8 0.00 0.00 0.00 96 1017.6
20260507040909 7 20 3.2 4.8 0.00 0.00 0.00 96 1017.4
20260507040709 7 35 1.6 4.8 0.00 0.00 0.00 97 1017.7
20260507040509 6 39 0.0 3.2 0.00 0.00 0.00 97 1017.6
20260507040310 6 38 0.0 3.2 0.00 0.00 0.00 97 1017.7
20260507040108 6 31 0.0 3.2 0.00 0.00 0.00 97 1017.5
20260507035908 6 50 0.0 3.2 0.00 0.00 0.00 97 1017.5
20260507035708 6 33 0.0 3.2 0.00 0.00 0.00 97 1017.4
20260507035508 6 30 0.0 3.2 0.00 0.00 0.00 97 1017.5
20260507035308 6 25 0.0 3.2 0.00 0.00 0.00 97 1017.6
20260507035108 6 20 1.6 3.2 0.00 0.00 0.00 97 1017.6
20260507034908 6 17 1.6 3.2 0.00 0.00 0.00 97 1017.5
20260507034708 6 13 1.6 3.2 0.00 0.00 0.00 97 1017.5
20260507034508 6 358 1.6 3.2 0.00 0.00 0.00 97 1017.5
20260507034308 6 359 1.6 3.2 0.00 0.00 0.00 97 1017.5
20260507034108 6 22 0.0 3.2 0.00 0.00 0.00 97 1017.5
20260507033908 6 5 1.6 3.2 0.00 0.00 0.00 97 1017.7
20260507033708 6 2 0.0 3.2 0.00 0.00 0.00 97 1017.5
20260507033508 6 22 1.6 3.2 0.00 0.00 0.00 97 1017.6
20260507033308 6 22 1.6 3.2 0.00 0.00 0.00 97 1017.4
20260507033108 6 2 0.0 3.2 0.00 0.00 0.00 97 1017.7
20260507032908 6 23 3.2 3.2 0.00 0.00 0.00 97 1017.5
20260507032708 6 18 0.0 3.2 0.00 0.00 0.00 97 1017.5
20260507032508 6 322 1.6 3.2 0.00 0.00 0.00 97 1017.5
20260507032309 6 47 0.0 3.2 0.00 0.00 0.00 96 1017.4
20260507032110 6 135 0.0 3.2 0.00 0.00 0.00 97 1017.4
20260507031909 6 340 0.0 3.2 0.00 0.00 0.00 97 1017.3
20260507031709 6 2 1.6 3.2 0.00 0.00 0.00 97 1017.4
20260507031509 6 7 3.2 3.2 0.00 0.00 0.00 97 1017.4
20260507031309 6 40 3.2 4.8 0.00 0.00 0.00 97 1017.3
20260507031109 6 7 0.0 4.8 0.00 0.00 0.00 97 1017.3
20260507030909 6 2 0.0 4.8 0.00 0.00 0.00 97 1017.3
20260507030709 6 9 0.0 4.8 0.00 0.00 0.00 97 1017.5
20260507030508 6 31 1.6 4.8 0.00 0.00 0.00 97 1017.6
20260507030308 6 30 3.2 4.8 0.00 0.00 0.00 97 1017.4
20260507030109 6 33 3.2 4.8 0.00 0.00 0.00 97 1017.4
20260507025908 6 21 3.2 4.8 0.00 0.00 0.00 97 1017.5
20260507025709 6 61 1.6 4.8 0.00 0.00 0.00 97 1017.3
20260507025508 6 22 3.2 4.8 0.00 0.00 0.00 97 1017.3
20260507025308 6 46 3.2 3.2 0.00 0.00 0.00 96 1017.4
20260507025108 6 29 1.6 3.2 0.00 0.00 0.00 96 1017.2
20260507024908 6 36 0.0 3.2 0.00 0.00 0.00 96 1017.5
20260507024708 6 31 0.0 4.8 0.00 0.00 0.00 96 1017.2
20260507024508 6 30 0.0 4.8 0.00 0.00 0.00 96 1017.3
20260507024308 6 19 0.0 4.8 0.00 0.00 0.00 96 1017.2
20260507024108 6 38 0.0 4.8 0.00 0.00 0.00 96 1017.3
20260507023909 6 39 3.2 4.8 0.00 0.00 0.00 96 1017.1
20260507023708 6 35 0.0 3.2 0.00 0.00 0.00 96 1017.2
20260507023508 6 46 1.6 3.2 0.00 0.00 0.00 96 1017.2
20260507023308 6 18 0.0 3.2 0.00 0.00 0.00 96 1017.0
20260507023108 6 33 1.6 3.2 0.00 0.00 0.00 96 1017.2
20260507022908 6 25 1.6 3.2 0.00 0.00 0.00 95 1017.1
20260507022708 6 3 0.0 3.2 0.00 0.00 0.00 95 1017.0
20260507022308 6 9 0.0 3.2 0.00 0.00 0.00 95 1017.2
20260507022108 6 48 1.6 3.2 0.00 0.00 0.00 95 1017.3
20260507021909 6 37 3.2 3.2 0.00 0.00 0.00 96 1017.1
20260507021708 6 29 0.0 3.2 0.00 0.00 0.00 96 1017.2
20260507021508 6 33 1.6 4.8 0.00 0.00 0.00 96 1017.3
20260507021308 7 20 0.0 4.8 0.00 0.00 0.00 96 1017.2
20260507021108 6 22 3.2 4.8 0.00 0.00 0.00 96 1017.3
20260507020908 7 19 0.0 4.8 0.00 0.00 0.00 96 1017.3
20260507020708 7 17 1.6 4.8 0.00 0.00 0.00 96 1017.2
20260507020507 7 21 3.2 4.8 0.00 0.00 0.00 96 1017.2
20260507020309 6 14 3.2 4.8 0.00 0.00 0.00 96 1017.1
20260507020108 6 347 0.0 4.8 0.00 0.00 0.00 97 1017.3
20260507015908 6 340 1.6 4.8 0.00 0.00 0.00 97 1017.2
20260507015710 6 358 0.0 3.2 0.00 0.00 0.00 97 1017.1
20260507015508 6 330 3.2 4.8 0.00 0.00 0.00 97 1017.2
20260507015308 6 17 0.0 4.8 0.00 0.00 0.00 97 1017.2
20260507015109 6 357 0.0 4.8 0.00 0.00 0.00 97 1017.1
20260507014908 6 5 0.0 4.8 0.00 0.00 0.00 97 1017.2
20260507014708 6 336 0.0 4.8 0.00 0.00 0.00 97 1017.1
20260507014508 6 7 1.6 3.2 0.00 0.00 0.00 97 1017.2
20260507014309 6 354 1.6 3.2 0.00 0.00 0.00 97 1017.1
20260507014108 6 334 3.2 3.2 0.00 0.00 0.00 97 1017.2
20260507013908 6 7 1.6 3.2 0.00 0.00 0.00 97 1017.3
20260507013708 6 3 0.0 3.2 0.00 0.00 0.00 97 1017.1
20260507013508 6 8 0.0 3.2 0.00 0.00 0.00 97 1017.3
20260507013308 6 331 0.0 3.2 0.00 0.00 0.00 97 1017.2